| time (UTC) | temp F | wind direction | speed MPH | gust MPH | rain 1hr in | rain 24hr in | rain mn in | humidity % | barometer mb |
| 20260508065257 | 62 | 57 | 5.0 | 17.0 | 0.00 | 0.00 | 0.00 | 70 | 1011.4 |
| 20260508064750 | 62 | 0 | 8.0 | 12.0 | 0.00 | 0.00 | 0.00 | 70 | 1011.4 |
| 20260508064253 | 62 | 350 | 5.0 | 14.0 | 0.00 | 0.00 | 0.00 | 70 | 1011.4 |
| 20260508063750 | 62 | 324 | 6.0 | 12.0 | 0.00 | 0.00 | 0.00 | 71 | 1011.4 |
| 20260508063253 | 62 | 24 | 13.0 | 13.0 | 0.00 | 0.00 | 0.00 | 71 | 1011.4 |
| 20260508062750 | 62 | 24 | 8.0 | 12.0 | 0.00 | 0.00 | 0.00 | 72 | 1011.4 |
| 20260508062254 | 61 | 32 | 4.0 | 13.0 | 0.00 | 0.00 | 0.00 | 72 | 1011.5 |
| 20260508061750 | 61 | 37 | 6.0 | 11.0 | 0.00 | 0.00 | 0.00 | 73 | 1011.5 |
| 20260508061250 | 61 | 10 | 5.0 | 11.0 | 0.00 | 0.00 | 0.00 | 73 | 1011.4 |
| 20260508060750 | 61 | 52 | 6.0 | 10.0 | 0.00 | 0.00 | 0.00 | 74 | 1011.4 |
| 20260508060250 | 60 | 17 | 3.0 | 11.0 | 0.00 | 0.00 | 0.00 | 75 | 1011.3 |
| 20260508055800 | 60 | 28 | 3.0 | 12.0 | 0.00 | 0.00 | 0.00 | 75 | 1011.3 |
| 20260508055250 | 60 | 49 | 3.0 | 12.0 | 0.00 | 0.00 | 0.00 | 75 | 1011.3 |
| 20260508054754 | 60 | 42 | 4.0 | 9.0 | 0.00 | 0.00 | 0.00 | 76 | 1011.3 |
| 20260508054254 | 60 | 38 | 3.0 | 11.0 | 0.00 | 0.00 | 0.00 | 76 | 1011.3 |
| 20260508053758 | 59 | 42 | 5.0 | 10.0 | 0.00 | 0.00 | 0.00 | 76 | 1011.3 |
| 20260508053250 | 59 | 61 | 5.0 | 9.0 | 0.00 | 0.00 | 0.00 | 76 | 1011.3 |
| 20260508052750 | 59 | 47 | 4.0 | 13.0 | 0.00 | 0.00 | 0.00 | 76 | 1011.3 |
| 20260508052256 | 59 | 44 | 9.0 | 12.0 | 0.00 | 0.00 | 0.00 | 76 | 1011.3 |
| 20260508051750 | 59 | 51 | 5.0 | 13.0 | 0.00 | 0.00 | 0.00 | 76 | 1011.3 |
| 20260508051253 | 59 | 54 | 5.0 | 11.0 | 0.00 | 0.00 | 0.00 | 76 | 1011.2 |
| 20260508050750 | 59 | 22 | 8.0 | 14.0 | 0.00 | 0.00 | 0.00 | 76 | 1011.2 |
| 20260508050250 | 59 | 18 | 10.0 | 13.0 | 0.00 | 0.00 | 0.00 | 76 | 1011.2 |
| 20260508045756 | 59 | 38 | 9.0 | 11.0 | 0.00 | 0.00 | 0.00 | 76 | 1011.1 |
| 20260508045250 | 59 | 32 | 6.0 | 13.0 | 0.00 | 0.00 | 0.00 | 76 | 1011.1 |
| 20260508044750 | 59 | 35 | 10.0 | 11.0 | 0.00 | 0.00 | 0.00 | 76 | 1011.1 |
| 20260508044251 | 59 | 36 | 6.0 | 11.0 | 0.00 | 0.00 | 0.00 | 76 | 1011.1 |
| 20260508043750 | 59 | 49 | 4.0 | 11.0 | 0.00 | 0.00 | 0.00 | 76 | 1011.1 |
| 20260508043256 | 59 | 38 | 4.0 | 11.0 | 0.00 | 0.00 | 0.00 | 76 | 1011.1 |
| 20260508042800 | 59 | 57 | 5.0 | 11.0 | 0.00 | 0.00 | 0.00 | 76 | 1011.0 |
| 20260508042251 | 59 | 30 | 9.0 | 10.0 | 0.00 | 0.00 | 0.00 | 76 | 1010.9 |
| 20260508041750 | 59 | 60 | 5.0 | 10.0 | 0.00 | 0.00 | 0.00 | 75 | 1010.9 |
| 20260508041256 | 59 | 49 | 3.0 | 10.0 | 0.00 | 0.00 | 0.00 | 74 | 1010.8 |
| 20260508040750 | 59 | 53 | 6.0 | 10.0 | 0.00 | 0.00 | 0.00 | 75 | 1010.9 |
| 20260508040254 | 59 | 29 | 6.0 | 11.0 | 0.00 | 0.00 | 0.00 | 74 | 1010.9 |
| 20260508035750 | 59 | 43 | 10.0 | 11.0 | 0.00 | 0.00 | 0.00 | 73 | 1010.8 |
| 20260508035253 | 59 | 56 | 9.0 | 12.0 | 0.00 | 0.00 | 0.00 | 72 | 1010.8 |
| 20260508034750 | 59 | 30 | 8.0 | 11.0 | 0.00 | 0.00 | 0.00 | 71 | 1010.8 |
| 20260508034256 | 59 | 70 | 5.0 | 11.0 | 0.00 | 0.00 | 0.00 | 71 | 1010.8 |
| 20260508033753 | 59 | 16 | 4.0 | 13.0 | 0.00 | 0.00 | 0.00 | 71 | 1010.9 |
| 20260508033253 | 59 | 67 | 6.0 | 11.0 | 0.00 | 0.00 | 0.00 | 72 | 1010.9 |
| 20260508032754 | 59 | 53 | 6.0 | 12.0 | 0.00 | 0.00 | 0.00 | 71 | 1010.9 |
| 20260508032259 | 59 | 50 | 7.0 | 11.0 | 0.00 | 0.00 | 0.00 | 71 | 1010.8 |
| 20260508031750 | 59 | 36 | 10.0 | 11.0 | 0.00 | 0.00 | 0.00 | 71 | 1010.8 |
| 20260508031252 | 59 | 20 | 5.0 | 11.0 | 0.00 | 0.00 | 0.00 | 71 | 1010.8 |
| 20260508030758 | 59 | 31 | 9.0 | 12.0 | 0.00 | 0.00 | 0.00 | 70 | 1010.9 |
| 20260508030251 | 59 | 41 | 5.0 | 12.0 | 0.00 | 0.00 | 0.00 | 71 | 1010.8 |
| 20260508025750 | 59 | 51 | 6.0 | 10.0 | 0.00 | 0.00 | 0.00 | 70 | 1010.8 |
| 20260508025253 | 59 | 39 | 9.0 | 11.0 | 0.00 | 0.00 | 0.00 | 70 | 1010.8 |
| 20260508024751 | 59 | 32 | 6.0 | 11.0 | 0.00 | 0.00 | 0.00 | 68 | 1010.7 |
| 20260508024256 | 59 | 41 | 7.0 | 12.0 | 0.00 | 0.00 | 0.00 | 67 | 1010.8 |
| 20260508023753 | 59 | 31 | 9.0 | 11.0 | 0.00 | 0.00 | 0.00 | 67 | 1010.9 |
| 20260508023250 | 59 | 43 | 11.0 | 12.0 | 0.00 | 0.00 | 0.00 | 66 | 1011.0 |
| 20260508022750 | 59 | 42 | 10.0 | 12.0 | 0.00 | 0.00 | 0.00 | 66 | 1010.9 |
| 20260508022250 | 59 | 76 | 8.0 | 12.0 | 0.00 | 0.00 | 0.00 | 66 | 1010.9 |
| 20260508021754 | 60 | 47 | 10.0 | 10.0 | 0.00 | 0.00 | 0.00 | 66 | 1011.0 |
| 20260508021254 | 60 | 40 | 9.0 | 12.0 | 0.00 | 0.00 | 0.00 | 65 | 1011.0 |
| 20260508020757 | 59 | 42 | 7.0 | 12.0 | 0.00 | 0.00 | 0.00 | 65 | 1011.2 |
| 20260508020250 | 59 | 45 | 6.0 | 10.0 | 0.00 | 0.00 | 0.00 | 66 | 1011.2 |
| 20260508015752 | 59 | 5 | 9.0 | 11.0 | 0.00 | 0.00 | 0.00 | 66 | 1011.2 |
| 20260508015250 | 59 | 51 | 9.0 | 12.0 | 0.00 | 0.00 | 0.00 | 67 | 1011.3 |
| 20260508014753 | 58 | 80 | 4.0 | 12.0 | 0.00 | 0.00 | 0.00 | 69 | 1011.3 |
| 20260508014253 | 57 | 65 | 9.0 | 10.0 | 0.00 | 0.00 | 0.00 | 73 | 1011.2 |
| 20260508013753 | 54 | 40 | 5.0 | 8.0 | 0.00 | 0.00 | 0.00 | 78 | 1011.2 |
| 20260508013252 | 53 | 50 | 3.0 | 3.0 | 0.00 | 0.00 | 0.00 | 80 | 1011.3 |
| 20260508012758 | 53 | 117 | 2.0 | 4.0 | 0.00 | 0.00 | 0.00 | 78 | 1011.4 |
| 20260508012259 | 54 | 150 | 2.0 | 4.0 | 0.00 | 0.00 | 0.00 | 78 | 1011.5 |
| 20260508011753 | 53 | 20 | 1.0 | 7.0 | 0.00 | 0.00 | 0.00 | 80 | 1011.6 |
| 20260508011250 | 53 | 138 | 3.0 | 8.0 | 0.00 | 0.00 | 0.00 | 80 | 1011.5 |
| 20260508010751 | 52 | 93 | 1.0 | 8.0 | 0.00 | 0.00 | 0.00 | 83 | 1011.6 |
| 20260508010250 | 50 | 55 | 1.0 | 6.0 | 0.00 | 0.00 | 0.00 | 85 | 1011.7 |
| 20260508005758 | 50 | 130 | 0.0 | 3.0 | 0.00 | 0.00 | 0.00 | 85 | 1011.8 |
| 20260508005250 | 50 | 146 | 2.0 | 3.0 | 0.00 | 0.00 | 0.00 | 85 | 1011.7 |
| 20260508004756 | 50 | 138 | 2.0 | 4.0 | 0.00 | 0.00 | 0.00 | 85 | 1011.8 |
| 20260508004250 | 50 | 184 | 2.0 | 4.0 | 0.00 | 0.00 | 0.00 | 85 | 1011.9 |
| 20260508003751 | 50 | 135 | 4.0 | 4.0 | 0.00 | 0.00 | 0.00 | 87 | 1012.0 |
| 20260508003250 | 49 | 124 | 2.0 | 4.0 | 0.00 | 0.00 | 0.00 | 86 | 1012.0 |
| 20260508002750 | 49 | 162 | 2.0 | 5.0 | 0.00 | 0.00 | 0.00 | 87 | 1012.1 |
| 20260508002253 | 49 | 164 | 4.0 | 5.0 | 0.00 | 0.00 | 0.00 | 87 | 1012.2 |
| 20260508001750 | 49 | 148 | 4.0 | 5.0 | 0.00 | 0.00 | 0.00 | 87 | 1012.2 |
| 20260508001251 | 50 | 140 | 4.0 | 4.0 | 0.00 | 0.00 | 0.00 | 87 | 1012.2 |
| 20260508000750 | 50 | 146 | 3.0 | 4.0 | 0.00 | 0.00 | 0.00 | 87 | 1012.2 |
| 20260508000253 | 50 | 123 | 1.0 | 3.0 | 0.00 | 0.00 | 0.00 | 87 | 1012.3 |
| 20260507235753 | 50 | 163 | 1.0 | 4.0 | 0.00 | 0.00 | 0.00 | 87 | 1012.4 |
| 20260507235253 | 50 | 151 | 3.0 | 3.0 | 0.00 | 0.00 | 0.00 | 87 | 1012.4 |
| 20260507234750 | 50 | 139 | 2.0 | 4.0 | 0.00 | 0.00 | 0.00 | 86 | 1012.4 |
| 20260507234253 | 50 | 136 | 2.0 | 3.0 | 0.00 | 0.00 | 0.00 | 86 | 1012.5 |
| 20260507233753 | 50 | 140 | 3.0 | 3.0 | 0.00 | 0.00 | 0.00 | 85 | 1012.5 |
| 20260507233301 | 50 | 140 | 2.0 | 2.0 | 0.00 | 0.00 | 0.00 | 85 | 1012.5 |
| 20260507232754 | 50 | 140 | 0.0 | 1.0 | 0.00 | 0.00 | 0.00 | 85 | 1012.7 |
| 20260507232251 | 50 | 140 | 1.0 | 2.0 | 0.00 | 0.00 | 0.00 | 85 | 1012.7 |
| 20260507231753 | 50 | 140 | 0.0 | 2.0 | 0.00 | 0.00 | 0.00 | 86 | 1012.7 |
| 20260507231250 | 50 | 140 | 1.0 | 2.0 | 0.00 | 0.00 | 0.00 | 87 | 1012.7 |
| 20260507230800 | 50 | 140 | 1.0 | 3.0 | 0.00 | 0.00 | 0.00 | 86 | 1012.8 |
| 20260507230257 | 50 | 141 | 1.0 | 3.0 | 0.00 | 0.00 | 0.00 | 86 | 1012.8 |
| 20260507225753 | 50 | 97 | 2.0 | 2.0 | 0.00 | 0.00 | 0.00 | 85 | 1012.7 |
| 20260507225256 | 51 | 135 | 0.0 | 3.0 | 0.00 | 0.00 | 0.00 | 87 | 1012.8 |
| 20260507224750 | 51 | 120 | 2.0 | 2.0 | 0.00 | 0.00 | 0.00 | 87 | 1012.9 |
| 20260507224250 | 51 | 120 | 2.0 | 3.0 | 0.00 | 0.00 | 0.00 | 88 | 1012.9 |
| 20260507223759 | 51 | 159 | 1.0 | 4.0 | 0.00 | 0.00 | 0.00 | 87 | 1012.8 |
| 20260507223256 | 51 | 153 | 2.0 | 4.0 | 0.00 | 0.00 | 0.00 | 87 | 1012.7 |
| 20260507222750 | 51 | 155 | 2.0 | 3.0 | 0.00 | 0.00 | 0.00 | 87 | 1012.7 |
| 20260507222253 | 51 | 140 | 3.0 | 3.0 | 0.00 | 0.01 | 0.00 | 87 | 1012.7 |
| 20260507221756 | 51 | 136 | 2.0 | 3.0 | 0.00 | 0.01 | 0.00 | 86 | 1012.7 |
| 20260507221250 | 51 | 101 | 0.0 | 2.0 | 0.00 | 0.02 | 0.00 | 86 | 1012.7 |
| 20260507220750 | 51 | 101 | 1.0 | 3.0 | 0.00 | 0.03 | 0.00 | 85 | 1012.8 |
| 20260507220256 | 51 | 152 | 1.0 | 2.0 | 0.00 | 0.03 | 0.00 | 87 | 1012.7 |
| 20260507215753 | 52 | 152 | 2.0 | 4.0 | 0.00 | 0.03 | 0.00 | 86 | 1012.7 |
| 20260507215251 | 52 | 165 | 4.0 | 4.0 | 0.00 | 0.03 | 0.00 | 85 | 1012.7 |
| 20260507214751 | 52 | 134 | 2.0 | 3.0 | 0.00 | 0.03 | 0.00 | 84 | 1012.7 |
| 20260507214250 | 52 | 147 | 2.0 | 3.0 | 0.00 | 0.03 | 0.00 | 84 | 1012.7 |
| 20260507213750 | 53 | 147 | 2.0 | 3.0 | 0.00 | 0.03 | 0.00 | 82 | 1012.6 |
| 20260507213253 | 53 | 147 | 1.0 | 2.0 | 0.00 | 0.03 | 0.00 | 80 | 1012.6 |
| 20260507212753 | 53 | 147 | 1.0 | 2.0 | 0.00 | 0.03 | 0.00 | 81 | 1012.6 |
| 20260507212253 | 53 | 147 | 0.0 | 1.0 | 0.00 | 0.03 | 0.00 | 82 | 1012.6 |
| 20260507211750 | 53 | 147 | 0.0 | 2.0 | 0.00 | 0.03 | 0.00 | 82 | 1012.6 |
| 20260507211251 | 53 | 147 | 2.0 | 3.0 | 0.00 | 0.03 | 0.00 | 81 | 1012.7 |
| 20260507210753 | 53 | 88 | 0.0 | 2.0 | 0.00 | 0.03 | 0.00 | 78 | 1012.8 |
| 20260507210259 | 53 | 88 | 2.0 | 3.0 | 0.00 | 0.03 | 0.00 | 78 | 1012.9 |
| 20260507205756 | 53 | 88 | 1.0 | 2.0 | 0.00 | 0.03 | 0.00 | 79 | 1012.8 |
| 20260507205259 | 53 | 87 | 1.0 | 3.0 | 0.00 | 0.03 | 0.00 | 78 | 1012.8 |
| 20260507204750 | 53 | 88 | 0.0 | 3.0 | 0.00 | 0.05 | 0.00 | 78 | 1012.7 |
| 20260507204253 | 53 | 85 | 2.0 | 3.0 | 0.00 | 0.06 | 0.00 | 78 | 1012.6 |
| 20260507203750 | 53 | 121 | 1.0 | 3.0 | 0.00 | 0.06 | 0.00 | 79 | 1012.6 |
| 20260507203253 | 53 | 60 | 1.0 | 2.0 | 0.00 | 0.06 | 0.00 | 77 | 1012.6 |
| 20260507202753 | 53 | 60 | 2.0 | 3.0 | 0.00 | 0.06 | 0.00 | 78 | 1012.7 |
| 20260507202254 | 53 | 60 | 2.0 | 3.0 | 0.00 | 0.06 | 0.00 | 78 | 1012.7 |
| 20260507201753 | 54 | 142 | 1.0 | 3.0 | 0.00 | 0.06 | 0.00 | 79 | 1012.8 |
| 20260507201252 | 54 | 117 | 2.0 | 3.0 | 0.00 | 0.06 | 0.00 | 78 | 1012.8 |
| 20260507200757 | 55 | 107 | 2.0 | 2.0 | 0.00 | 0.06 | 0.00 | 80 | 1012.7 |
| 20260507200259 | 55 | 107 | 0.0 | 1.0 | 0.00 | 0.06 | 0.00 | 80 | 1012.7 |
| 20260507195750 | 55 | 107 | 0.0 | 0.0 | 0.00 | 0.06 | 0.00 | 79 | 1012.7 |
| 20260507195250 | 56 | 107 | 0.0 | 2.0 | 0.00 | 0.06 | 0.00 | 80 | 1012.8 |
| 20260507194750 | 56 | 107 | 0.0 | 1.0 | 0.00 | 0.06 | 0.00 | 79 | 1012.8 |
| 20260507194250 | 56 | 107 | 0.0 | 0.0 | 0.00 | 0.06 | 0.00 | 79 | 1012.7 |
| 20260507193754 | 56 | 107 | 0.0 | 3.0 | 0.00 | 0.06 | 0.00 | 79 | 1012.6 |
| 20260507193250 | 56 | 96 | 2.0 | 3.0 | 0.00 | 0.06 | 0.00 | 77 | 1012.6 |
| 20260507192750 | 56 | 79 | 2.0 | 3.0 | 0.00 | 0.06 | 0.00 | 76 | 1012.4 |
| 20260507192250 | 57 | 88 | 1.0 | 4.0 | 0.00 | 0.06 | 0.00 | 76 | 1012.4 |
| 20260507191751 | 57 | 82 | 2.0 | 3.0 | 0.00 | 0.06 | 0.00 | 75 | 1012.3 |
| 20260507191253 | 57 | 82 | 2.0 | 3.0 | 0.00 | 0.06 | 0.00 | 75 | 1012.3 |
| 20260507190750 | 58 | 86 | 2.0 | 3.0 | 0.00 | 0.06 | 0.00 | 73 | 1012.0 |
| 20260507190250 | 58 | 85 | 2.0 | 3.0 | 0.00 | 0.06 | 0.00 | 73 | 1012.0 |
| 20260507185754 | 59 | 71 | 1.0 | 4.0 | 0.00 | 0.06 | 0.00 | 72 | 1011.9 |
| 20260507185253 | 59 | 58 | 2.0 | 3.0 | 0.00 | 0.06 | 0.00 | 72 | 1011.8 |
| 20260507184751 | 60 | 252 | 1.0 | 1.0 | 0.00 | 0.06 | 0.00 | 72 | 1011.7 |
| 20260507184254 | 60 | 252 | 1.0 | 2.0 | 0.00 | 0.06 | 0.00 | 71 | 1011.7 |
| 20260507183753 | 61 | 113 | 1.0 | 4.0 | 0.00 | 0.06 | 0.00 | 68 | 1011.6 |
| 20260507183251 | 61 | 107 | 3.0 | 4.0 | 0.00 | 0.06 | 0.00 | 68 | 1011.6 |
| 20260507182753 | 61 | 96 | 2.0 | 4.0 | 0.00 | 0.06 | 0.00 | 68 | 1011.6 |
| 20260507182253 | 62 | 120 | 2.0 | 4.0 | 0.00 | 0.06 | 0.00 | 67 | 1011.7 |
| 20260507181759 | 62 | 123 | 3.0 | 3.0 | 0.00 | 0.06 | 0.00 | 66 | 1011.6 |
| 20260507181256 | 63 | 128 | 2.0 | 3.0 | 0.00 | 0.06 | 0.00 | 65 | 1011.5 |
| 20260507180753 | 63 | 130 | 1.0 | 3.0 | 0.00 | 0.06 | 0.00 | 64 | 1011.5 |
| 20260507180254 | 64 | 126 | 2.0 | 4.0 | 0.00 | 0.06 | 0.00 | 61 | 1011.5 |
| 20260507175750 | 64 | 174 | 0.0 | 4.0 | 0.00 | 0.06 | 0.00 | 60 | 1011.3 |
| 20260507175253 | 65 | 163 | 2.0 | 4.0 | 0.00 | 0.06 | 0.00 | 59 | 1011.3 |
| 20260507174758 | 66 | 141 | 2.0 | 5.0 | 0.00 | 0.06 | 0.00 | 59 | 1011.2 |
| 20260507174253 | 66 | 221 | 0.0 | 3.0 | 0.00 | 0.06 | 0.00 | 62 | 1011.1 |
| 20260507173756 | 67 | 181 | 2.0 | 4.0 | 0.00 | 0.06 | 0.00 | 60 | 1011.1 |
| 20260507173250 | 67 | 288 | 2.0 | 6.0 | 0.00 | 0.06 | 0.00 | 59 | 1011.0 |
| 20260507172759 | 67 | 174 | 2.0 | 3.0 | 0.00 | 0.06 | 0.00 | 60 | 1010.9 |
| 20260507172250 | 67 | 281 | 1.0 | 5.0 | 0.00 | 0.06 | 0.00 | 60 | 1010.9 |
| 20260507171753 | 67 | 245 | 2.0 | 4.0 | 0.00 | 0.06 | 0.00 | 61 | 1010.9 |
| 20260507171253 | 67 | 259 | 2.0 | 7.0 | 0.00 | 0.06 | 0.00 | 59 | 1010.9 |
| 20260507170751 | 68 | 259 | 6.0 | 8.0 | 0.00 | 0.06 | 0.00 | 56 | 1010.9 |
| 20260507170250 | 68 | 250 | 2.0 | 8.0 | 0.00 | 0.06 | 0.00 | 58 | 1011.0 |
| 20260507165750 | 69 | 215 | 1.0 | 4.0 | 0.00 | 0.06 | 0.00 | 57 | 1011.0 |
| 20260507165250 | 69 | 261 | 1.0 | 7.0 | 0.00 | 0.06 | 0.00 | 57 | 1010.9 |
| 20260507164756 | 69 | 311 | 2.0 | 6.0 | 0.00 | 0.06 | 0.00 | 55 | 1010.9 |
| 20260507164253 | 69 | 266 | 0.0 | 6.0 | 0.00 | 0.06 | 0.00 | 56 | 1011.0 |
| 20260507163750 | 69 | 233 | 1.0 | 7.0 | 0.00 | 0.06 | 0.00 | 55 | 1011.0 |
| 20260507163253 | 69 | 167 | 0.0 | 5.0 | 0.00 | 0.06 | 0.00 | 55 | 1011.0 |
| 20260507162750 | 69 | 256 | 1.0 | 6.0 | 0.00 | 0.06 | 0.00 | 55 | 1010.9 |
| 20260507162250 | 69 | 264 | 7.0 | 11.0 | 0.00 | 0.06 | 0.00 | 54 | 1010.9 |
| 20260507161753 | 69 | 240 | 3.0 | 9.0 | 0.00 | 0.06 | 0.00 | 52 | 1010.8 |
| 20260507161250 | 69 | 286 | 3.0 | 7.0 | 0.00 | 0.06 | 0.00 | 52 | 1010.8 |
| 20260507160756 | 69 | 233 | 2.0 | 6.0 | 0.00 | 0.06 | 0.00 | 52 | 1010.7 |
| 20260507160254 | 69 | 229 | 3.0 | 10.0 | 0.00 | 0.06 | 0.00 | 52 | 1010.7 |
| 20260507155759 | 69 | 234 | 0.0 | 8.0 | 0.00 | 0.06 | 0.00 | 51 | 1010.7 |
| 20260507155256 | 69 | 284 | 2.0 | 10.0 | 0.00 | 0.06 | 0.00 | 54 | 1010.7 |
| 20260507154750 | 69 | 211 | 3.0 | 12.0 | 0.00 | 0.06 | 0.00 | 51 | 1010.7 |
| 20260507154253 | 70 | 294 | 4.0 | 8.0 | 0.00 | 0.06 | 0.00 | 51 | 1010.7 |
| 20260507153751 | 70 | 281 | 3.0 | 6.0 | 0.00 | 0.06 | 0.00 | 52 | 1010.7 |
| 20260507153250 | 70 | 280 | 4.0 | 7.0 | 0.00 | 0.06 | 0.00 | 52 | 1010.8 |
| 20260507152750 | 69 | 312 | 3.0 | 9.0 | 0.00 | 0.06 | 0.00 | 54 | 1010.8 |
| 20260507152250 | 69 | 205 | 3.0 | 10.0 | 0.00 | 0.06 | 0.00 | 52 | 1010.7 |
| 20260507151753 | 69 | 306 | 4.0 | 12.0 | 0.00 | 0.06 | 0.00 | 52 | 1010.7 |
| 20260507151253 | 69 | 267 | 6.0 | 9.0 | 0.00 | 0.06 | 0.00 | 54 | 1010.8 |
| 20260507150756 | 69 | 272 | 3.0 | 8.0 | 0.00 | 0.06 | 0.00 | 55 | 1010.8 |
| 20260507150250 | 69 | 255 | 2.0 | 13.0 | 0.00 | 0.06 | 0.00 | 56 | 1010.8 |
| 20260507145759 | 70 | 268 | 2.0 | 7.0 | 0.00 | 0.06 | 0.00 | 55 | 1010.9 |
| 20260507145252 | 70 | 159 | 0.0 | 5.0 | 0.00 | 0.06 | 0.00 | 57 | 1010.9 |
| 20260507144751 | 69 | 236 | 4.0 | 14.0 | 0.00 | 0.06 | 0.00 | 53 | 1011.0 |
| 20260507144252 | 70 | 223 | 4.0 | 10.0 | 0.00 | 0.06 | 0.00 | 54 | 1011.0 |
| 20260507143753 | 70 | 260 | 4.0 | 10.0 | 0.00 | 0.06 | 0.00 | 57 | 1011.1 |
| 20260507143257 | 70 | 199 | 1.0 | 13.0 | 0.00 | 0.06 | 0.00 | 55 | 1011.2 |
| 20260507142759 | 71 | 173 | 1.0 | 7.0 | 0.00 | 0.06 | 0.00 | 55 | 1011.2 |
| 20260507142250 | 70 | 199 | 1.0 | 7.0 | 0.00 | 0.06 | 0.00 | 56 | 1011.0 |
| 20260507141750 | 70 | 215 | 5.0 | 9.0 | 0.00 | 0.06 | 0.00 | 57 | 1011.1 |
| 20260507141250 | 70 | 294 | 3.0 | 8.0 | 0.00 | 0.06 | 0.00 | 57 | 1011.1 |
| 20260507140750 | 70 | 266 | 6.0 | 10.0 | 0.00 | 0.06 | 0.00 | 57 | 1011.0 |
| 20260507140250 | 70 | 220 | 5.0 | 14.0 | 0.00 | 0.06 | 0.00 | 58 | 1010.9 |
| 20260507135752 | 70 | 256 | 8.0 | 11.0 | 0.00 | 0.06 | 0.00 | 56 | 1010.9 |
| 20260507135250 | 70 | 227 | 1.0 | 9.0 | 0.00 | 0.06 | 0.00 | 60 | 1011.0 |
| 20260507134751 | 69 | 271 | 4.0 | 10.0 | 0.00 | 0.06 | 0.00 | 61 | 1011.0 |
| 20260507134259 | 69 | 126 | 7.0 | 11.0 | 0.00 | 0.06 | 0.00 | 59 | 1011.0 |
| 20260507133753 | 69 | 268 | 10.0 | 10.0 | 0.00 | 0.06 | 0.00 | 60 | 1011.1 |
| 20260507133256 | 69 | 182 | 2.0 | 14.0 | 0.00 | 0.06 | 0.00 | 58 | 1011.2 |
| 20260507132750 | 69 | 97 | 2.0 | 9.0 | 0.00 | 0.06 | 0.00 | 61 | 1011.2 |
| 20260507132253 | 69 | 232 | 4.0 | 10.0 | 0.00 | 0.06 | 0.00 | 58 | 1011.3 |
| 20260507131753 | 68 | 275 | 3.0 | 11.0 | 0.00 | 0.07 | 0.00 | 64 | 1011.2 |
| 20260507131253 | 68 | 267 | 2.0 | 10.0 | 0.00 | 0.08 | 0.00 | 61 | 1011.2 |
| 20260507130750 | 67 | 252 | 1.0 | 8.0 | 0.00 | 0.12 | 0.00 | 62 | 1011.2 |
| 20260507130250 | 68 | 175 | 3.0 | 7.0 | 0.00 | 0.20 | 0.00 | 61 | 1011.2 |
| 20260507125754 | 68 | 257 | 2.0 | 8.0 | 0.00 | 0.22 | 0.00 | 62 | 1011.3 |
| 20260507125250 | 68 | 240 | 5.0 | 9.0 | 0.00 | 0.25 | 0.00 | 62 | 1011.3 |
| 20260507124753 | 68 | 270 | 1.0 | 7.0 | 0.00 | 0.25 | 0.00 | 65 | 1011.3 |
| 20260507124251 | 67 | 262 | 6.0 | 6.0 | 0.00 | 0.25 | 0.00 | 65 | 1011.3 |
| 20260507123800 | 67 | 211 | 0.0 | 6.0 | 0.00 | 0.25 | 0.00 | 63 | 1011.3 |
| 20260507123254 | 67 | 219 | 2.0 | 5.0 | 0.00 | 0.25 | 0.00 | 62 | 1011.3 |
| 20260507122753 | 67 | 211 | 3.0 | 10.0 | 0.00 | 0.25 | 0.00 | 63 | 1011.4 |
| 20260507122259 | 67 | 294 | 11.0 | 11.0 | 0.00 | 0.25 | 0.00 | 63 | 1011.4 |
| 20260507121750 | 67 | 205 | 1.0 | 9.0 | 0.00 | 0.25 | 0.00 | 62 | 1011.3 |
| 20260507121250 | 67 | 110 | 3.0 | 11.0 | 0.00 | 0.25 | 0.00 | 66 | 1011.4 |
| 20260507120750 | 66 | 131 | 1.0 | 9.0 | 0.00 | 0.25 | 0.00 | 67 | 1011.3 |
| 20260507120250 | 66 | 264 | 8.0 | 11.0 | 0.00 | 0.25 | 0.00 | 66 | 1011.5 |
| 20260507115750 | 66 | 235 | 2.0 | 8.0 | 0.00 | 0.25 | 0.00 | 64 | 1011.5 |
| 20260507115256 | 67 | 216 | 0.0 | 7.0 | 0.00 | 0.25 | 0.00 | 63 | 1011.5 |
| 20260507114751 | 66 | 243 | 2.0 | 10.0 | 0.00 | 0.25 | 0.00 | 64 | 1011.6 |
| 20260507114256 | 67 | 244 | 1.0 | 8.0 | 0.00 | 0.25 | 0.00 | 67 | 1011.6 |
| 20260507113753 | 66 | 264 | 2.0 | 7.0 | 0.00 | 0.25 | 0.00 | 66 | 1011.7 |
| 20260507113256 | 66 | 245 | 1.0 | 9.0 | 0.00 | 0.25 | 0.00 | 67 | 1011.7 |
| 20260507112758 | 66 | 258 | 6.0 | 11.0 | 0.00 | 0.25 | 0.00 | 68 | 1011.7 |
| 20260507112250 | 66 | 198 | 2.0 | 8.0 | 0.00 | 0.25 | 0.00 | 68 | 1011.8 |
| 20260507111750 | 66 | 222 | 2.0 | 9.0 | 0.00 | 0.25 | 0.00 | 69 | 1011.9 |
| 20260507111255 | 66 | 175 | 2.0 | 8.0 | 0.00 | 0.25 | 0.00 | 66 | 1011.8 |
| 20260507110754 | 65 | 196 | 0.0 | 11.0 | 0.00 | 0.25 | 0.00 | 69 | 1011.9 |
| 20260507110250 | 65 | 254 | 9.0 | 11.0 | 0.00 | 0.25 | 0.00 | 73 | 1011.8 |
| 20260507105758 | 65 | 280 | 6.0 | 11.0 | 0.00 | 0.25 | 0.00 | 68 | 1011.9 |
| 20260507105253 | 65 | 250 | 1.0 | 8.0 | 0.00 | 0.25 | 0.00 | 70 | 1012.0 |
| 20260507104753 | 65 | 196 | 5.0 | 9.0 | 0.00 | 0.25 | 0.00 | 71 | 1012.1 |
| 20260507104250 | 65 | 207 | 2.0 | 10.0 | 0.00 | 0.25 | 0.00 | 69 | 1012.2 |
| 20260507103759 | 65 | 277 | 1.0 | 9.0 | 0.00 | 0.25 | 0.00 | 71 | 1012.2 |
| 20260507103253 | 65 | 207 | 1.0 | 5.0 | 0.00 | 0.25 | 0.00 | 73 | 1012.2 |
| 20260507102756 | 64 | 182 | 3.0 | 7.0 | 0.00 | 0.25 | 0.00 | 72 | 1012.3 |
| 20260507102259 | 64 | 140 | 3.0 | 8.0 | 0.00 | 0.25 | 0.00 | 75 | 1012.2 |
| 20260507101753 | 64 | 191 | 2.0 | 10.0 | 0.00 | 0.25 | 0.00 | 73 | 1012.3 |
| 20260507101254 | 63 | 133 | 2.0 | 7.0 | 0.00 | 0.25 | 0.00 | 78 | 1012.2 |
| 20260507100828 | 63 | 182 | 6.0 | 9.0 | 0.00 | 0.25 | 0.00 | 74 | 1012.4 |
| 20260507100253 | 63 | 148 | 6.0 | 10.0 | 0.00 | 0.25 | 0.00 | 76 | 1012.3 |
| 20260507095756 | 62 | 42 | 2.0 | 7.0 | 0.00 | 0.25 | 0.00 | 78 | 1012.3 |
| 20260507095250 | 62 | 261 | 3.0 | 9.0 | 0.00 | 0.25 | 0.00 | 76 | 1012.3 |
| 20260507094753 | 62 | 290 | 0.0 | 6.0 | 0.00 | 0.25 | 0.00 | 79 | 1012.3 |
| 20260507094259 | 62 | 155 | 6.0 | 8.0 | 0.00 | 0.25 | 0.00 | 78 | 1012.3 |
| 20260507093750 | 62 | 117 | 2.0 | 8.0 | 0.00 | 0.25 | 0.00 | 79 | 1012.4 |
| 20260507093250 | 61 | 132 | 1.0 | 5.0 | 0.00 | 0.25 | 0.00 | 79 | 1012.5 |
| 20260507092756 | 61 | 318 | 2.0 | 6.0 | 0.00 | 0.25 | 0.00 | 80 | 1012.6 |
| 20260507092250 | 61 | 226 | 2.0 | 6.0 | 0.00 | 0.25 | 0.00 | 81 | 1012.6 |
| 20260507091750 | 61 | 184 | 2.0 | 6.0 | 0.00 | 0.25 | 0.00 | 81 | 1012.6 |
| 20260507091250 | 61 | 217 | 3.0 | 9.0 | 0.00 | 0.25 | 0.00 | 81 | 1012.7 |
| 20260507090756 | 60 | 185 | 4.0 | 6.0 | 0.00 | 0.25 | 0.00 | 83 | 1012.6 |
| 20260507090252 | 60 | 235 | 2.0 | 5.0 | 0.00 | 0.25 | 0.00 | 83 | 1012.7 |
| 20260507085751 | 59 | 178 | 1.0 | 9.0 | 0.00 | 0.25 | 0.00 | 83 | 1012.8 |
| 20260507085254 | 59 | 192 | 4.0 | 4.0 | 0.00 | 0.25 | 0.00 | 85 | 1012.8 |
| 20260507084750 | 59 | 265 | 3.0 | 8.0 | 0.00 | 0.25 | 0.00 | 86 | 1012.7 |
| 20260507084301 | 58 | 231 | 0.0 | 3.0 | 0.00 | 0.25 | 0.00 | 87 | 1012.7 |
| 20260507083750 | 58 | 111 | 2.0 | 4.0 | 0.00 | 0.25 | 0.00 | 87 | 1012.7 |
| 20260507083250 | 58 | 126 | 3.0 | 5.0 | 0.00 | 0.25 | 0.00 | 89 | 1012.8 |
| 20260507082754 | 57 | 235 | 0.0 | 4.0 | 0.00 | 0.25 | 0.00 | 91 | 1012.8 |
| 20260507082253 | 56 | 258 | 1.0 | 8.0 | 0.00 | 0.25 | 0.00 | 91 | 1012.7 |
| 20260507081750 | 56 | 205 | 2.0 | 3.0 | 0.00 | 0.25 | 0.00 | 91 | 1012.7 |
| 20260507081259 | 56 | 163 | 1.0 | 3.0 | 0.00 | 0.25 | 0.00 | 91 | 1012.7 |
| 20260507080753 | 56 | 253 | 1.0 | 3.0 | 0.00 | 0.25 | 0.00 | 92 | 1012.8 |
| 20260507080250 | 56 | 173 | 1.0 | 4.0 | 0.00 | 0.25 | 0.00 | 92 | 1012.7 |
| 20260507075750 | 56 | 161 | 4.0 | 6.0 | 0.00 | 0.25 | 0.00 | 93 | 1012.7 |
| 20260507075253 | 56 | 183 | 2.0 | 2.0 | 0.00 | 0.25 | 0.00 | 95 | 1012.7 |
| 20260507074753 | 55 | 155 | 0.0 | 5.0 | 0.00 | 0.25 | 0.00 | 94 | 1012.7 |
| 20260507074250 | 55 | 182 | 1.0 | 2.0 | 0.00 | 0.25 | 0.00 | 95 | 1012.7 |
| 20260507073750 | 55 | 252 | 0.0 | 2.0 | 0.00 | 0.25 | 0.00 | 95 | 1012.7 |
| 20260507073250 | 55 | 209 | 2.0 | 2.0 | 0.00 | 0.25 | 0.00 | 95 | 1012.6 |
| 20260507072750 | 55 | 204 | 1.0 | 2.0 | 0.00 | 0.25 | 0.00 | 95 | 1012.6 |
| 20260507072256 | 55 | 202 | 0.0 | 2.0 | 0.00 | 0.25 | 0.00 | 96 | 1012.6 |
| 20260507071754 | 54 | 208 | 0.0 | 1.0 | 0.00 | 0.25 | 0.00 | 96 | 1012.7 |
| 20260507071250 | 54 | 290 | 0.0 | 1.0 | 0.00 | 0.25 | 0.00 | 96 | 1012.6 |
| 20260507070756 | 54 | 290 | 0.0 | 2.0 | 0.00 | 0.25 | 0.00 | 95 | 1012.6 |
| 20260507070250 | 54 | 290 | 0.0 | 3.0 | 0.00 | 0.25 | 0.00 | 96 | 1012.5 |
| 20260507065754 | 54 | 279 | 1.0 | 2.0 | 0.00 | 0.25 | 0.00 | 95 | 1012.5 |